This is the latest recevied weather packets stored in our database for station/object DC0VZ-6. If no packets are shown the sender has not sent any weather packets the latest 10 day(s).
| Time | Temp. | Humidity | Pressure | Rain* | Wind** | Luminosity | Snow |
|---|---|---|---|---|---|---|---|
| 1778142371 | 12.78° C | 52% | 982.1 hPa | 0 mm | - | - | - |
| 1778141770 | 12.22° C | 52% | 982.1 hPa | 0 mm | - | - | - |
| 1778141170 | 12.22° C | 52% | 982.1 hPa | 0 mm | - | - | - |
| 1778140570 | 11.67° C | 52% | 981.8 hPa | 0 mm | - | - | - |
| 1778139970 | 12.22° C | 52% | 981.8 hPa | 0 mm | - | - | - |
| 1778139370 | 11.67° C | 52% | 981.4 hPa | 0 mm | - | - | - |
| 1778138770 | 11.67° C | 52% | 981.4 hPa | 0 mm | - | - | - |
| 1778138170 | 11.11° C | 51% | 981.1 hPa | 0 mm | - | - | - |
| 1778137570 | 11.11° C | 51% | 981.1 hPa | 0 mm | - | - | - |
| 1778136970 | 10.56° C | 51% | 981 hPa | 0 mm | - | - | - |
| 1778136370 | 10.56° C | 51% | 981 hPa | 0 mm | - | - | - |
| 1778135770 | 10.56° C | 51% | 980.8 hPa | 0 mm | - | - | - |
| 1778135169 | 10° C | 51% | 980.8 hPa | 0 mm | - | - | - |
| 1778134570 | 10° C | 51% | 980.4 hPa | 0 mm | - | - | - |
| 1778133969 | 10.56° C | 51% | 980.4 hPa | 0 mm | - | - | - |
| 1778133369 | 10° C | 50% | 980.2 hPa | 0 mm | - | - | - |
| 1778132774 | 10° C | 50% | 980.2 hPa | 0 mm | - | - | - |
| 1778132174 | 10° C | 50% | 979.9 hPa | 0 mm | - | - | - |
| 1778131574 | 10° C | 50% | 979.9 hPa | 0 mm | - | - | - |
| 1778130974 | 10° C | 50% | 979.8 hPa | 0 mm | - | - | - |
| 1778130374 | 10° C | 50% | 979.8 hPa | 0 mm | - | - | - |
| 1778129774 | 9.44° C | 50% | 979.6 hPa | 0 mm | - | - | - |
| 1778129174 | 9.44° C | 50% | 979.6 hPa | 0 mm | - | - | - |
| 1778128574 | 9.44° C | 50% | 979.3 hPa | 0 mm | - | - | - |
| 1778127973 | 9.44° C | 49% | 979.3 hPa | 0 mm | - | - | - |
* Rain latest hour (hover to see other rain measurements)
** Current wind speed in m/s (hover to see current wind gust speed)